GFSSE_prec_precacc24_159.txt.gz
Total_Precipitation_Accumulation
0.10 0.01 0.01 0.01 0.00 0.00 0.00 0.00 0.00 0.00 0.00 0.00 0.00 0.00 0.00 0.00 0.00 0.00 0.00 0.00 0.00 0.00 0.00 0.00 0.00 0.00 0.00 0.00 0.01 0.02 0.02 0.01 0.01 0.04 0.07 0.13 0.01 0.00 0.00 0.02 0.10 0.05 0.05
0.05 0.02 0.01 0.01 0.00 0.00 0.00 0.00 0.00 0.00 0.01 0.00 0.00 0.00 0.00 0.00 0.00 0.00 0.00 0.00 0.00 0.00 0.00 0.00 0.00 0.00 0.00 0.00 0.00 0.00 0.00 0.00 0.00 0.02 0.08 0.16 0.07 0.02 0.00 0.00 0.13 0.10 0.04
0.02 0.01 0.00 0.01 0.01 0.00 0.01 0.01 0.00 0.01 0.00 0.01 0.01 0.01 0.01 0.00 0.00 0.00 0.00 0.00 0.01 0.03 0.02 0.00 0.00 0.00 0.00 0.00 0.00 0.00 0.00 0.00 0.00 0.03 0.12 0.15 0.17 0.27 0.16 0.07 0.07 0.10 0.06
0.04 0.00 0.00 0.01 0.01 0.01 0.01 0.00 0.01 0.01 0.01 0.01 0.00 0.01 0.01 0.01 0.01 0.01 0.00 0.00 0.01 0.04 0.05 0.05 0.05 0.03 0.00 0.00 0.00 0.00 0.00 0.00 0.00 0.04 0.20 0.41 0.26 0.31 0.46 0.36 0.17 0.03 0.05
0.09 0.01 0.01 0.01 0.01 0.00 0.00 0.00 0.00 0.00 0.00 0.00 0.01 0.01 0.01 0.05 0.04 0.06 0.03 0.01 0.04 0.08 0.09 0.10 0.10 0.07 0.02 0.00 0.00 0.00 0.00 0.00 0.00 0.04 0.25 0.57 0.43 0.25 0.31 0.28 0.22 0.13 0.11
0.09 0.01 0.00 0.00 0.00 0.00 0.00 0.00 0.00 0.00 0.00 0.00 0.00 0.01 0.13 0.16 0.16 0.12 0.05 0.04 0.03 0.05 0.10 0.13 0.12 0.07 0.02 0.00 0.00 0.00 0.00 0.00 0.00 0.01 0.31 1.24 0.77 0.48 0.34 0.30 0.26 0.24 0.18
0.01 0.00 0.00 0.00 0.00 0.00 0.00 0.00 0.00 0.00 0.00 0.00 0.00 0.00 0.05 0.11 0.14 0.12 0.06 0.04 0.07 0.06 0.05 0.06 0.10 0.10 0.08 0.03 0.01 0.00 0.00 0.00 0.00 0.00 0.19 0.50 1.04 0.31 0.40 0.38 0.31 0.27 0.23
0.00 0.00 0.00 0.00 0.00 0.00 0.00 0.00 0.00 0.00 0.00 0.00 0.00 0.00 0.02 0.08 0.09 0.09 0.06 0.09 0.12 0.13 0.10 0.04 0.05 0.06 0.07 0.09 0.08 0.03 0.00 0.00 0.00 0.01 0.09 0.24 0.23 0.17 0.23 0.37 0.32 0.27 0.28
0.00 0.00 0.00 0.00 0.00 0.00 0.00 0.00 0.00 0.00 0.01 0.01 0.01 0.01 0.01 0.07 0.06 0.07 0.08 0.11 0.07 0.09 0.09 0.06 0.05 0.06 0.09 0.06 0.11 0.08 0.03 0.02 0.00 0.01 0.05 0.17 0.18 0.11 0.12 0.12 0.18 0.13 0.17
0.00 0.00 0.00 0.00 0.00 0.00 0.01 0.00 0.00 0.00 0.00 0.01 0.05 0.09 0.09 0.07 0.05 0.09 0.07 0.07 0.06 0.06 0.04 0.07 0.08 0.07 0.06 0.04 0.06 0.11 0.05 0.04 0.00 0.00 0.02 0.09 0.10 0.17 0.25 0.20 0.21 0.22 0.28
0.00 0.00 0.00 0.00 0.00 0.00 0.00 0.00 0.00 0.00 0.01 0.02 0.07 0.12 0.16 0.14 0.24 0.30 0.22 0.22 0.17 0.14 0.14 0.14 0.15 0.14 0.09 0.10 0.08 0.09 0.17 0.10 0.03 0.00 0.01 0.21 0.29 0.16 0.28 0.34 0.21 0.20 0.30
0.00 0.00 0.00 0.00 0.00 0.00 0.00 0.00 0.00 0.00 0.01 0.04 0.03 0.08 0.13 0.27 0.35 0.60 0.63 0.56 0.49 0.35 0.23 0.11 0.11 0.14 0.21 0.12 0.09 0.13 0.13 0.15 0.11 0.04 0.02 0.09 0.12 0.16 0.26 0.29 0.21 0.28 0.35
0.00 0.00 0.00 0.00 0.00 0.00 0.00 0.00 0.00 0.00 0.00 0.00 0.00 0.01 0.03 0.07 0.17 0.29 0.35 0.57 0.58 0.66 0.35 0.15 0.04 0.11 0.24 0.20 0.18 0.13 0.07 0.06 0.08 0.12 0.15 0.20 0.15 0.23 0.26 0.37 0.32 0.34 0.31
0.00 0.00 0.00 0.00 0.00 0.00 0.00 0.00 0.00 0.00 0.00 0.00 0.00 0.00 0.00 0.01 0.06 0.15 0.19 0.26 0.38 0.53 0.61 0.55 0.43 0.43 0.52 0.33 0.27 0.28 0.29 0.34 0.41 0.30 0.31 0.40 0.28 0.29 0.28 0.39 0.37 0.30 0.28
0.00 0.00 0.00 0.00 0.00 0.00 0.00 0.00 0.00 0.00 0.00 0.00 0.00 0.00 0.00 0.00 0.00 0.02 0.07 0.13 0.15 0.28 0.39 0.44 0.49 0.62 0.80 0.81 0.85 0.69 0.73 0.59 0.59 0.76 0.72 0.80 0.66 0.40 0.45 0.60 0.55 0.51 0.37
0.00 0.00 0.00 0.00 0.00 0.00 0.00 0.00 0.00 0.00 0.00 0.00 0.00 0.00 0.00 0.00 0.00 0.00 0.01 0.06 0.09 0.17 0.23 0.31 0.44 0.62 0.77 1.14 0.90 0.69 0.73 0.48 0.48 0.85 1.55 1.42 0.86 0.65 0.47 0.64 0.97 0.84 0.65
0.00 0.00 0.00 0.00 0.00 0.00 0.00 0.00 0.00 0.00 0.00 0.00 0.00 0.00 0.00 0.00 0.00 0.00 0.00 0.00 0.01 0.07 0.14 0.24 0.33 0.36 0.34 0.44 0.69 1.06 1.31 1.20 0.68 0.42 0.52 0.65 0.65 0.54 0.44 0.43 0.40 0.68 0.92
0.00 0.00 0.00 0.00 0.00 0.00 0.00 0.00 0.00 0.00 0.00 0.00 0.00 0.00 0.00 0.00 0.00 0.00 0.00 0.00 0.00 0.00 0.00 0.01 0.03 0.15 0.60 0.56 0.40 0.42 0.75 0.87 0.83 0.92 0.69 0.47 0.38 0.57 0.88 0.39 0.19 0.21 0.46
0.00 0.00 0.00 0.00 0.00 0.00 0.00 0.00 0.00 0.00 0.00 0.00 0.00 0.00 0.00 0.00 0.00 0.00 0.00 0.00 0.00 0.00 0.00 0.00 0.00 0.00 0.09 0.35 0.48 0.38 0.32 0.38 0.28 0.22 0.25 0.24 0.15 0.09 0.20 0.26 0.15 0.05 0.16
0.00 0.00 0.00 0.00 0.00 0.00 0.00 0.00 0.00 0.00 0.00 0.00 0.00 0.00 0.00 0.00 0.00 0.00 0.00 0.00 0.00 0.00 0.00 0.00 0.00 0.00 0.00 0.03 0.19 0.26 0.21 0.16 0.10 0.08 0.06 0.07 0.08 0.04 0.01 0.08 0.17 0.15 0.08
0.00 0.00 0.00 0.00 0.00 0.00 0.00 0.00 0.00 0.00 0.00 0.00 0.00 0.00 0.00 0.00 0.00 0.00 0.00 0.00 0.00 0.00 0.00 0.00 0.00 0.00 0.00 0.00 0.03 0.05 0.04 0.02 0.03 0.03 0.03 0.03 0.04 0.04 0.02 0.04 0.14 0.19 0.17
0.00 0.00 0.00 0.00 0.00 0.00 0.00 0.00 0.00 0.00 0.00 0.00 0.00 0.00 0.00 0.00 0.00 0.00 0.00 0.00 0.00 0.00 0.00 0.00 0.00 0.01 0.00 0.00 0.01 0.02 0.02 0.01 0.01 0.01 0.02 0.04 0.04 0.05 0.04 0.01 0.09 0.10 0.08
0.00 0.00 0.00 0.00 0.00 0.00 0.00 0.00 0.00 0.00 0.00 0.00 0.00 0.00 0.00 0.00 0.00 0.00 0.00 0.00 0.00 0.00 0.01 0.00 0.00 0.02 0.02 0.01 0.02 0.06 0.05 0.03 0.01 0.00 0.01 0.01 0.02 0.04 0.06 0.04 0.02 0.05 0.05
0.00 0.00 0.00 0.00 0.00 0.00 0.00 0.00 0.00 0.00 0.00 0.00 0.00 0.00 0.00 0.00 0.00 0.00 0.00 0.00 0.00 0.00 0.01 0.01 0.01 0.01 0.03 0.03 0.02 0.02 0.04 0.06 0.11 0.08 0.04 0.06 0.03 0.03 0.07 0.08 0.08 0.05 0.07
0.00 0.00 0.00 0.00 0.00 0.00 0.00 0.00 0.00 0.00 0.00 0.00 0.00 0.00 0.00 0.00 0.00 0.00 0.00 0.00 0.00 0.01 0.01 0.01 0.02 0.02 0.03 0.04 0.04 0.04 0.06 0.05 0.05 0.13 0.06 0.07 0.17 0.16 0.15 0.09 0.14 0.18 0.20
0.00 0.00 0.00 0.00 0.00 0.00 0.00 0.00 0.00 0.00 0.00 0.00 0.00 0.00 0.00 0.00 0.00 0.00 0.01 0.01 0.01 0.01 0.02 0.02 0.03 0.04 0.04 0.04 0.04 0.04 0.08 0.11 0.07 0.15 0.14 0.05 0.16 0.20 0.26 0.44 0.43 0.40 0.34

GFSSE_prec_precacc24_162.txt.gz
Total_Precipitation_Accumulation
0.11 0.03 0.02 0.01 0.01 0.01 0.00 0.00 0.00 0.00 0.00 0.00 0.00 0.00 0.00 0.00 0.00 0.00 0.00 0.00 0.00 0.00 0.00 0.00 0.00 0.00 0.00 0.00 0.01 0.02 0.02 0.01 0.01 0.04 0.07 0.13 0.01 0.00 0.00 0.04 0.10 0.05 0.05
0.06 0.03 0.01 0.01 0.01 0.00 0.00 0.00 0.00 0.00 0.01 0.00 0.00 0.00 0.00 0.00 0.00 0.00 0.00 0.01 0.01 0.00 0.00 0.00 0.00 0.00 0.00 0.00 0.00 0.00 0.00 0.00 0.00 0.02 0.08 0.16 0.07 0.02 0.00 0.02 0.13 0.13 0.04
0.02 0.01 0.01 0.01 0.01 0.01 0.01 0.01 0.01 0.01 0.01 0.01 0.01 0.01 0.01 0.01 0.00 0.00 0.01 0.01 0.05 0.06 0.04 0.03 0.01 0.00 0.00 0.00 0.00 0.00 0.00 0.00 0.00 0.03 0.12 0.14 0.19 0.28 0.17 0.09 0.09 0.11 0.08
0.04 0.00 0.01 0.02 0.01 0.01 0.01 0.01 0.01 0.01 0.01 0.01 0.01 0.01 0.01 0.02 0.02 0.02 0.01 0.01 0.02 0.05 0.07 0.09 0.07 0.04 0.00 0.00 0.00 0.00 0.00 0.00 0.00 0.04 0.20 0.41 0.25 0.30 0.46 0.38 0.18 0.03 0.07
0.09 0.01 0.01 0.02 0.01 0.01 0.00 0.01 0.00 0.00 0.00 0.00 0.01 0.01 0.01 0.05 0.05 0.07 0.03 0.01 0.04 0.09 0.09 0.11 0.12 0.07 0.02 0.00 0.00 0.00 0.00 0.00 0.00 0.04 0.25 0.56 0.38 0.23 0.30 0.28 0.23 0.10 0.10
0.09 0.01 0.00 0.00 0.00 0.00 0.00 0.00 0.00 0.00 0.00 0.00 0.00 0.01 0.13 0.12 0.13 0.11 0.05 0.04 0.03 0.05 0.10 0.13 0.12 0.07 0.02 0.00 0.00 0.00 0.00 0.00 0.00 0.01 0.31 1.24 0.76 0.46 0.29 0.29 0.25 0.25 0.21
0.01 0.00 0.00 0.00 0.00 0.00 0.00 0.00 0.00 0.00 0.00 0.00 0.00 0.00 0.04 0.08 0.09 0.09 0.05 0.04 0.07 0.06 0.05 0.06 0.10 0.10 0.08 0.03 0.03 0.01 0.00 0.00 0.00 0.00 0.19 0.50 1.03 0.29 0.34 0.33 0.28 0.27 0.25
0.00 0.00 0.00 0.00 0.00 0.00 0.00 0.00 0.00 0.00 0.00 0.00 0.00 0.00 0.02 0.05 0.06 0.04 0.04 0.08 0.09 0.11 0.09 0.03 0.05 0.06 0.07 0.09 0.08 0.04 0.01 0.00 0.00 0.01 0.09 0.24 0.21 0.16 0.19 0.29 0.25 0.23 0.23
0.00 0.00 0.00 0.00 0.00 0.00 0.00 0.00 0.00 0.00 0.00 0.00 0.01 0.01 0.01 0.03 0.04 0.02 0.02 0.04 0.05 0.07 0.07 0.03 0.04 0.06 0.09 0.06 0.11 0.08 0.03 0.02 0.01 0.01 0.05 0.17 0.18 0.11 0.12 0.10 0.16 0.12 0.17
0.00 0.00 0.00 0.00 0.00 0.00 0.00 0.00 0.00 0.00 0.00 0.00 0.01 0.05 0.05 0.03 0.04 0.06 0.05 0.03 0.04 0.04 0.03 0.04 0.05 0.07 0.06 0.04 0.06 0.11 0.05 0.04 0.01 0.03 0.05 0.09 0.11 0.17 0.25 0.18 0.18 0.19 0.24
0.00 0.00 0.00 0.00 0.00 0.00 0.00 0.00 0.00 0.00 0.00 0.00 0.02 0.04 0.08 0.07 0.17 0.27 0.21 0.17 0.12 0.11 0.11 0.09 0.11 0.12 0.09 0.10 0.08 0.09 0.17 0.10 0.03 0.00 0.03 0.25 0.31 0.16 0.27 0.33 0.21 0.19 0.25
0.00 0.00 0.00 0.00 0.00 0.00 0.00 0.00 0.00 0.00 0.00 0.00 0.00 0.03 0.09 0.18 0.24 0.52 0.54 0.51 0.42 0.27 0.16 0.06 0.06 0.10 0.21 0.12 0.08 0.13 0.13 0.15 0.11 0.04 0.02 0.09 0.12 0.16 0.26 0.28 0.21 0.27 0.31
0.00 0.00 0.00 0.00 0.00 0.00 0.00 0.00 0.00 0.00 0.00 0.00 0.00 0.00 0.00 0.03 0.10 0.20 0.24 0.46 0.48 0.56 0.29 0.12 0.02 0.10 0.24 0.20 0.18 0.12 0.07 0.06 0.08 0.12 0.15 0.20 0.15 0.23 0.27 0.36 0.33 0.35 0.29
0.00 0.00 0.00 0.00 0.00 0.00 0.00 0.00 0.00 0.00 0.00 0.00 0.00 0.00 0.00 0.00 0.01 0.04 0.08 0.17 0.24 0.39 0.49 0.43 0.31 0.36 0.47 0.31 0.27 0.27 0.29 0.34 0.41 0.30 0.31 0.40 0.28 0.29 0.28 0.39 0.38 0.32 0.28
0.00 0.00 0.00 0.00 0.00 0.00 0.00 0.00 0.00 0.00 0.00 0.00 0.00 0.00 0.00 0.00 0.00 0.00 0.00 0.01 0.04 0.15 0.26 0.32 0.40 0.55 0.73 0.75 0.82 0.68 0.73 0.59 0.59 0.76 0.72 0.80 0.66 0.40 0.45 0.59 0.54 0.52 0.39
0.00 0.00 0.00 0.00 0.00 0.00 0.00 0.00 0.00 0.00 0.00 0.00 0.00 0.00 0.00 0.00 0.00 0.00 0.00 0.00 0.00 0.03 0.09 0.16 0.30 0.51 0.68 1.02 0.82 0.67 0.73 0.47 0.47 0.85 1.55 1.42 0.86 0.65 0.47 0.61 0.93 0.83 0.70
0.00 0.00 0.00 0.00 0.00 0.00 0.00 0.00 0.00 0.00 0.00 0.00 0.00 0.00 0.00 0.00 0.00 0.00 0.00 0.00 0.00 0.00 0.00 0.02 0.09 0.11 0.16 0.25 0.50 0.96 1.28 1.17 0.66 0.42 0.52 0.65 0.65 0.54 0.44 0.43 0.36 0.60 0.86
0.00 0.00 0.00 0.00 0.00 0.00 0.00 0.00 0.00 0.00 0.00 0.00 0.00 0.00 0.00 0.00 0.00 0.00 0.00 0.00 0.00 0.00 0.00 0.00 0.00 0.00 0.04 0.05 0.06 0.21 0.63 0.83 0.80 0.89 0.68 0.46 0.38 0.57 0.88 0.39 0.19 0.18 0.37
0.00 0.00 0.00 0.00 0.00 0.00 0.00 0.00 0.00 0.00 0.00 0.00 0.00 0.00 0.00 0.00 0.00 0.00 0.00 0.00 0.00 0.00 0.00 0.00 0.00 0.00 0.00 0.00 0.00 0.02 0.03 0.21 0.24 0.18 0.22 0.22 0.15 0.09 0.20 0.24 0.12 0.04 0.15
0.00 0.00 0.00 0.00 0.00 0.00 0.00 0.00 0.00 0.00 0.00 0.00 0.00 0.00 0.00 0.00 0.00 0.00 0.00 0.00 0.00 0.00 0.00 0.00 0.00 0.00 0.00 0.00 0.00 0.00 0.00 0.00 0.06 0.05 0.04 0.05 0.07 0.04 0.01 0.08 0.16 0.14 0.06
0.00 0.00 0.00 0.00 0.00 0.00 0.00 0.00 0.00 0.00 0.00 0.00 0.00 0.00 0.00 0.00 0.00 0.00 0.00 0.00 0.00 0.00 0.00 0.00 0.00 0.00 0.00 0.00 0.00 0.00 0.00 0.00 0.01 0.02 0.02 0.02 0.03 0.04 0.02 0.04 0.14 0.19 0.16
0.00 0.00 0.00 0.00 0.00 0.00 0.00 0.00 0.00 0.00 0.00 0.00 0.00 0.00 0.00 0.00 0.00 0.00 0.00 0.00 0.00 0.00 0.00 0.00 0.00 0.00 0.00 0.00 0.01 0.01 0.00 0.00 0.00 0.01 0.02 0.04 0.04 0.05 0.04 0.02 0.09 0.10 0.08
0.00 0.00 0.00 0.00 0.00 0.00 0.00 0.00 0.00 0.00 0.00 0.00 0.00 0.00 0.00 0.00 0.00 0.00 0.00 0.00 0.00 0.00 0.01 0.00 0.00 0.02 0.02 0.00 0.01 0.06 0.05 0.02 0.01 0.00 0.00 0.01 0.02 0.04 0.06 0.04 0.03 0.06 0.05
0.00 0.00 0.00 0.00 0.00 0.00 0.00 0.00 0.00 0.00 0.00 0.00 0.00 0.00 0.00 0.00 0.00 0.00 0.00 0.00 0.00 0.00 0.01 0.01 0.01 0.01 0.03 0.03 0.01 0.01 0.04 0.08 0.12 0.07 0.03 0.04 0.03 0.03 0.08 0.11 0.13 0.08 0.10
0.00 0.00 0.00 0.00 0.00 0.00 0.00 0.00 0.00 0.00 0.00 0.00 0.00 0.00 0.00 0.00 0.00 0.00 0.00 0.00 0.00 0.01 0.01 0.01 0.02 0.02 0.03 0.04 0.04 0.03 0.03 0.03 0.04 0.12 0.05 0.05 0.16 0.18 0.16 0.15 0.27 0.20 0.20
0.00 0.00 0.00 0.00 0.00 0.00 0.00 0.00 0.00 0.00 0.00 0.00 0.00 0.00 0.00 0.00 0.00 0.00 0.01 0.00 0.01 0.01 0.02 0.02 0.03 0.04 0.04 0.04 0.04 0.04 0.06 0.09 0.06 0.15 0.14 0.03 0.10 0.22 0.28 0.50 0.52 0.44 0.33

GFSSE_prec_precacc24_168.txt.gz
Total_Precipitation_Accumulation
0.12 0.03 0.02 0.02 0.01 0.01 0.00 0.00 0.00 0.00 0.00 0.00 0.00 0.00 0.00 0.00 0.00 0.00 0.00 0.00 0.00 0.00 0.00 0.00 0.00 0.00 0.00 0.00 0.01 0.02 0.02 0.01 0.01 0.04 0.07 0.13 0.01 0.00 0.00 0.03 0.02 0.08 0.13
0.07 0.04 0.01 0.02 0.01 0.01 0.01 0.01 0.00 0.00 0.01 0.00 0.00 0.00 0.00 0.00 0.00 0.00 0.00 0.01 0.01 0.00 0.00 0.00 0.00 0.00 0.00 0.00 0.00 0.00 0.00 0.00 0.00 0.02 0.08 0.16 0.07 0.02 0.00 0.02 0.02 0.16 0.11
0.03 0.02 0.01 0.02 0.02 0.02 0.02 0.02 0.01 0.01 0.01 0.02 0.02 0.02 0.01 0.01 0.01 0.01 0.01 0.02 0.05 0.06 0.05 0.03 0.01 0.00 0.01 0.00 0.00 0.00 0.00 0.00 0.00 0.03 0.11 0.14 0.24 0.30 0.17 0.09 0.07 0.05 0.08
0.04 0.02 0.02 0.03 0.02 0.02 0.02 0.02 0.03 0.02 0.02 0.01 0.01 0.01 0.02 0.02 0.02 0.02 0.01 0.01 0.02 0.06 0.09 0.11 0.09 0.06 0.01 0.00 0.00 0.00 0.00 0.00 0.00 0.04 0.18 0.36 0.26 0.37 0.50 0.40 0.18 0.03 0.06
0.10 0.02 0.01 0.02 0.02 0.01 0.01 0.01 0.01 0.00 0.00 0.00 0.01 0.01 0.01 0.02 0.02 0.03 0.01 0.01 0.04 0.09 0.10 0.12 0.13 0.08 0.03 0.00 0.00 0.00 0.00 0.00 0.00 0.04 0.16 0.21 0.28 0.25 0.39 0.32 0.23 0.10 0.09
0.09 0.01 0.00 0.01 0.00 0.00 0.00 0.00 0.00 0.00 0.00 0.00 0.01 0.01 0.01 0.01 0.01 0.01 0.01 0.03 0.03 0.05 0.10 0.13 0.12 0.07 0.02 0.00 0.00 0.00 0.00 0.00 0.00 0.01 0.11 0.26 0.36 0.26 0.29 0.31 0.25 0.25 0.16
0.01 0.00 0.00 0.00 0.00 0.00 0.00 0.00 0.00 0.00 0.00 0.00 0.00 0.00 0.00 0.00 0.00 0.01 0.00 0.02 0.04 0.03 0.04 0.06 0.10 0.10 0.08 0.03 0.03 0.01 0.00 0.00 0.00 0.00 0.07 0.25 0.84 0.20 0.24 0.30 0.24 0.26 0.23
0.00 0.00 0.00 0.00 0.00 0.00 0.00 0.00 0.00 0.00 0.00 0.00 0.00 0.00 0.00 0.00 0.00 0.00 0.01 0.04 0.04 0.04 0.04 0.01 0.03 0.06 0.07 0.09 0.08 0.04 0.01 0.00 0.00 0.00 0.07 0.21 0.20 0.18 0.19 0.30 0.22 0.21 0.20
0.00 0.00 0.00 0.00 0.00 0.00 0.00 0.00 0.00 0.00 0.00 0.00 0.00 0.00 0.00 0.00 0.00 0.00 0.01 0.02 0.02 0.04 0.04 0.02 0.01 0.04 0.09 0.06 0.11 0.08 0.03 0.02 0.01 0.01 0.04 0.15 0.19 0.12 0.15 0.13 0.16 0.11 0.13
0.00 0.00 0.00 0.00 0.00 0.00 0.00 0.00 0.00 0.00 0.00 0.00 0.00 0.00 0.00 0.00 0.01 0.04 0.04 0.02 0.03 0.02 0.01 0.03 0.04 0.05 0.06 0.04 0.06 0.11 0.05 0.04 0.01 0.04 0.04 0.04 0.12 0.23 0.30 0.21 0.21 0.20 0.21
0.00 0.00 0.00 0.00 0.00 0.00 0.00 0.00 0.00 0.00 0.00 0.00 0.00 0.00 0.00 0.00 0.00 0.00 0.02 0.02 0.02 0.01 0.00 0.01 0.04 0.09 0.09 0.10 0.08 0.09 0.17 0.10 0.03 0.00 0.02 0.07 0.11 0.15 0.31 0.38 0.29 0.24 0.24
0.00 0.00 0.00 0.00 0.00 0.00 0.00 0.00 0.00 0.00 0.00 0.00 0.00 0.00 0.00 0.00 0.00 0.00 0.01 0.01 0.01 0.00 0.00 0.00 0.01 0.07 0.21 0.12 0.08 0.13 0.13 0.15 0.11 0.03 0.02 0.06 0.04 0.10 0.22 0.27 0.25 0.29 0.30
0.00 0.00 0.00 0.00 0.00 0.00 0.00 0.00 0.00 0.00 0.00 0.00 0.00 0.00 0.00 0.00 0.00 0.00 0.00 0.00 0.01 0.03 0.02 0.00 0.00 0.05 0.18 0.19 0.18 0.11 0.06 0.06 0.08 0.11 0.10 0.13 0.07 0.16 0.23 0.34 0.34 0.35 0.28
0.00 0.00 0.00 0.00 0.00 0.00 0.00 0.00 0.00 0.00 0.00 0.00 0.00 0.00 0.00 0.00 0.00 0.00 0.00 0.00 0.00 0.00 0.00 0.01 0.02 0.08 0.15 0.17 0.24 0.20 0.21 0.31 0.41 0.30 0.28 0.35 0.25 0.24 0.23 0.35 0.35 0.32 0.27
0.00 0.00 0.00 0.00 0.00 0.00 0.00 0.00 0.00 0.00 0.00 0.00 0.00 0.00 0.00 0.00 0.00 0.00 0.00 0.00 0.00 0.00 0.00 0.00 0.01 0.01 0.11 0.17 0.31 0.49 0.51 0.38 0.51 0.74 0.57 0.54 0.45 0.32 0.40 0.53 0.50 0.50 0.38
0.00 0.00 0.00 0.00 0.00 0.00 0.00 0.00 0.00 0.00 0.00 0.00 0.00 0.00 0.00 0.00 0.00 0.00 0.00 0.00 0.00 0.00 0.00 0.00 0.00 0.00 0.00 0.00 0.01 0.16 0.31 0.20 0.19 0.61 1.44 1.24 0.70 0.57 0.44 0.56 0.88 0.80 0.69
0.00 0.00 0.01 0.00 0.00 0.00 0.00 0.00 0.00 0.00 0.00 0.00 0.00 0.00 0.00 0.00 0.00 0.00 0.00 0.00 0.00 0.00 0.00 0.00 0.00 0.00 0.00 0.00 0.00 0.00 0.03 0.14 0.10 0.16 0.37 0.50 0.38 0.32 0.34 0.40 0.32 0.53 0.79
0.00 0.00 0.00 0.00 0.00 0.00 0.00 0.00 0.00 0.00 0.00 0.00 0.00 0.00 0.00 0.00 0.00 0.00 0.00 0.00 0.00 0.00 0.00 0.00 0.00 0.00 0.00 0.00 0.00 0.00 0.00 0.00 0.01 0.08 0.08 0.12 0.15 0.07 0.30 0.29 0.18 0.15 0.27
0.00 0.00 0.00 0.00 0.00 0.00 0.00 0.00 0.00 0.00 0.00 0.00 0.00 0.00 0.00 0.00 0.00 0.00 0.00 0.00 0.00 0.00 0.00 0.00 0.00 0.00 0.00 0.00 0.00 0.00 0.00 0.00 0.00 0.00 0.00 0.02 0.04 0.03 0.08 0.13 0.05 0.03 0.12
0.00 0.00 0.00 0.00 0.00 0.00 0.00 0.00 0.00 0.00 0.00 0.00 0.00 0.00 0.00 0.00 0.00 0.00 0.00 0.00 0.00 0.00 0.00 0.00 0.00 0.00 0.00 0.00 0.00 0.00 0.00 0.00 0.00 0.00 0.00 0.00 0.00 0.00 0.01 0.04 0.08 0.11 0.05
0.00 0.00 0.00 0.00 0.00 0.00 0.00 0.00 0.00 0.00 0.00 0.00 0.00 0.00 0.00 0.00 0.00 0.00 0.00 0.00 0.00 0.00 0.00 0.00 0.00 0.00 0.00 0.00 0.00 0.00 0.00 0.00 0.00 0.00 0.00 0.00 0.00 0.00 0.00 0.01 0.05 0.10 0.13
0.00 0.00 0.00 0.00 0.00 0.00 0.00 0.00 0.00 0.00 0.00 0.00 0.00 0.00 0.00 0.00 0.00 0.00 0.00 0.00 0.00 0.00 0.00 0.00 0.00 0.00 0.00 0.00 0.01 0.01 0.00 0.00 0.00 0.00 0.00 0.00 0.00 0.00 0.00 0.00 0.01 0.03 0.07
0.00 0.00 0.00 0.00 0.00 0.00 0.00 0.00 0.00 0.00 0.00 0.00 0.00 0.00 0.00 0.00 0.00 0.00 0.00 0.00 0.00 0.00 0.01 0.00 0.00 0.02 0.02 0.00 0.01 0.06 0.05 0.02 0.00 0.00 0.00 0.00 0.00 0.00 0.02 0.02 0.02 0.05 0.04
0.00 0.00 0.00 0.00 0.00 0.00 0.00 0.00 0.00 0.00 0.00 0.00 0.00 0.00 0.00 0.00 0.00 0.00 0.00 0.00 0.00 0.00 0.01 0.01 0.01 0.01 0.03 0.03 0.01 0.01 0.04 0.06 0.08 0.03 0.00 0.00 0.00 0.02 0.06 0.10 0.14 0.09 0.10
0.00 0.00 0.00 0.00 0.00 0.00 0.00 0.00 0.00 0.00 0.00 0.00 0.00 0.00 0.00 0.00 0.00 0.00 0.00 0.00 0.00 0.00 0.01 0.01 0.02 0.02 0.03 0.04 0.04 0.03 0.03 0.02 0.03 0.08 0.02 0.00 0.04 0.06 0.10 0.15 0.30 0.16 0.16
0.00 0.00 0.00 0.00 0.00 0.00 0.00 0.00 0.00 0.00 0.00 0.00 0.00 0.00 0.00 0.00 0.00 0.00 0.00 0.00 0.00 0.01 0.02 0.01 0.02 0.03 0.04 0.04 0.04 0.04 0.07 0.09 0.05 0.14 0.13 0.02 0.06 0.12 0.14 0.40 0.44 0.34 0.27

GFSSE_prec_precacc24_171.txt.gz
Total_Precipitation_Accumulation
0.04 0.03 0.02 0.02 0.01 0.01 0.00 0.00 0.00 0.00 0.00 0.00 0.00 0.00 0.00 0.00 0.00 0.00 0.00 0.00 0.00 0.00 0.00 0.00 0.00 0.00 0.00 0.00 0.01 0.02 0.02 0.01 0.01 0.03 0.06 0.11 0.01 0.00 0.00 0.03 0.01 0.08 0.13
0.06 0.04 0.01 0.02 0.01 0.01 0.01 0.01 0.00 0.00 0.01 0.00 0.00 0.00 0.00 0.00 0.00 0.00 0.00 0.01 0.01 0.00 0.00 0.00 0.00 0.00 0.00 0.00 0.00 0.00 0.00 0.00 0.00 0.02 0.07 0.14 0.07 0.07 0.05 0.03 0.02 0.16 0.11
0.03 0.02 0.01 0.02 0.02 0.02 0.02 0.02 0.01 0.01 0.01 0.02 0.02 0.02 0.01 0.01 0.01 0.01 0.01 0.02 0.05 0.06 0.05 0.03 0.01 0.01 0.01 0.00 0.00 0.00 0.00 0.00 0.00 0.03 0.08 0.12 0.23 0.37 0.26 0.11 0.05 0.06 0.07
0.04 0.02 0.03 0.03 0.03 0.03 0.02 0.02 0.03 0.02 0.02 0.01 0.01 0.01 0.02 0.02 0.02 0.02 0.01 0.01 0.02 0.06 0.09 0.11 0.10 0.06 0.01 0.01 0.00 0.00 0.00 0.00 0.00 0.02 0.05 0.12 0.15 0.39 0.58 0.43 0.17 0.04 0.07
0.09 0.02 0.02 0.03 0.02 0.02 0.01 0.01 0.01 0.01 0.01 0.00 0.01 0.01 0.01 0.01 0.01 0.01 0.00 0.01 0.04 0.08 0.09 0.10 0.13 0.08 0.03 0.01 0.00 0.00 0.00 0.00 0.00 0.02 0.00 0.01 0.03 0.17 0.40 0.35 0.23 0.10 0.09
0.09 0.01 0.01 0.01 0.01 0.01 0.00 0.00 0.00 0.00 0.00 0.00 0.01 0.01 0.01 0.00 0.00 0.00 0.00 0.00 0.01 0.05 0.09 0.12 0.12 0.07 0.02 0.00 0.00 0.00 0.00 0.00 0.00 0.00 0.00 0.01 0.03 0.14 0.22 0.30 0.26 0.25 0.17
0.01 0.00 0.00 0.01 0.01 0.01 0.00 0.00 0.00 0.00 0.00 0.00 0.00 0.00 0.00 0.00 0.00 0.00 0.00 0.00 0.00 0.00 0.02 0.05 0.09 0.10 0.08 0.03 0.03 0.01 0.00 0.00 0.00 0.00 0.00 0.00 0.06 0.06 0.20 0.30 0.25 0.26 0.24
0.00 0.00 0.00 0.00 0.01 0.00 0.00 0.00 0.00 0.00 0.00 0.00 0.00 0.00 0.00 0.00 0.00 0.00 0.00 0.00 0.00 0.00 0.00 0.01 0.03 0.06 0.07 0.09 0.08 0.04 0.01 0.00 0.00 0.00 0.00 0.01 0.04 0.09 0.15 0.28 0.26 0.23 0.20
0.00 0.00 0.00 0.00 0.00 0.00 0.00 0.00 0.00 0.00 0.00 0.00 0.00 0.00 0.00 0.00 0.00 0.00 0.00 0.00 0.00 0.00 0.00 0.00 0.01 0.04 0.09 0.06 0.11 0.08 0.03 0.02 0.01 0.00 0.00 0.00 0.03 0.07 0.11 0.13 0.21 0.17 0.16
0.00 0.00 0.00 0.00 0.00 0.00 0.00 0.00 0.00 0.00 0.00 0.00 0.00 0.00 0.00 0.00 0.00 0.00 0.00 0.00 0.00 0.00 0.00 0.00 0.02 0.04 0.06 0.04 0.06 0.11 0.05 0.04 0.01 0.04 0.04 0.03 0.06 0.11 0.21 0.19 0.25 0.29 0.30
0.00 0.00 0.00 0.00 0.00 0.00 0.00 0.00 0.00 0.00 0.00 0.00 0.00 0.00 0.00 0.00 0.00 0.00 0.00 0.00 0.00 0.00 0.00 0.00 0.02 0.06 0.06 0.10 0.08 0.09 0.17 0.10 0.03 0.00 0.02 0.07 0.09 0.06 0.24 0.32 0.28 0.32 0.33
0.00 0.00 0.00 0.00 0.00 0.00 0.00 0.00 0.00 0.00 0.00 0.00 0.00 0.00 0.00 0.00 0.00 0.00 0.00 0.00 0.00 0.00 0.00 0.00 0.00 0.01 0.08 0.09 0.07 0.11 0.13 0.15 0.11 0.03 0.01 0.04 0.04 0.07 0.17 0.23 0.22 0.29 0.31
0.00 0.00 0.00 0.00 0.00 0.00 0.00 0.00 0.00 0.00 0.00 0.00 0.00 0.00 0.00 0.00 0.00 0.00 0.00 0.00 0.00 0.00 0.00 0.00 0.00 0.01 0.05 0.10 0.10 0.03 0.03 0.05 0.07 0.11 0.07 0.06 0.05 0.13 0.17 0.27 0.28 0.34 0.28
0.00 0.00 0.00 0.00 0.00 0.00 0.00 0.00 0.00 0.00 0.00 0.00 0.00 0.00 0.00 0.00 0.00 0.00 0.00 0.00 0.00 0.00 0.00 0.00 0.00 0.00 0.01 0.05 0.04 0.04 0.06 0.18 0.33 0.20 0.14 0.25 0.22 0.21 0.18 0.28 0.26 0.27 0.27
0.00 0.00 0.00 0.01 0.01 0.00 0.00 0.00 0.00 0.00 0.00 0.00 0.00 0.00 0.00 0.00 0.00 0.00 0.00 0.00 0.00 0.00 0.00 0.00 0.00 0.00 0.00 0.00 0.01 0.02 0.03 0.06 0.19 0.26 0.25 0.34 0.33 0.27 0.32 0.45 0.41 0.42 0.34
0.00 0.00 0.01 0.00 0.00 0.00 0.00 0.00 0.00 0.00 0.00 0.00 0.00 0.00 0.00 0.00 0.00 0.00 0.00 0.00 0.00 0.00 0.00 0.00 0.00 0.00 0.00 0.00 0.00 0.00 0.00 0.00 0.03 0.05 0.08 0.27 0.40 0.47 0.39 0.50 0.78 0.70 0.61
0.00 0.00 0.01 0.00 0.00 0.00 0.00 0.00 0.00 0.00 0.00 0.00 0.00 0.00 0.00 0.00 0.00 0.00 0.00 0.00 0.00 0.00 0.00 0.00 0.00 0.00 0.00 0.00 0.00 0.00 0.00 0.00 0.00 0.01 0.02 0.08 0.13 0.11 0.14 0.15 0.18 0.42 0.67
0.00 0.00 0.00 0.00 0.00 0.00 0.00 0.00 0.00 0.00 0.00 0.00 0.00 0.00 0.00 0.00 0.00 0.00 0.00 0.00 0.00 0.00 0.00 0.00 0.00 0.00 0.00 0.00 0.00 0.00 0.00 0.00 0.00 0.01 0.02 0.02 0.03 0.01 0.03 0.02 0.01 0.02 0.14
0.00 0.00 0.00 0.00 0.01 0.00 0.00 0.00 0.00 0.00 0.00 0.00 0.00 0.00 0.00 0.00 0.00 0.00 0.00 0.00 0.00 0.00 0.00 0.00 0.00 0.00 0.00 0.00 0.00 0.00 0.00 0.00 0.00 0.00 0.00 0.00 0.01 0.01 0.02 0.03 0.02 0.01 0.05
0.00 0.00 0.00 0.00 0.01 0.00 0.00 0.00 0.00 0.00 0.00 0.00 0.00 0.00 0.00 0.00 0.00 0.00 0.00 0.00 0.00 0.00 0.00 0.00 0.00 0.00 0.00 0.00 0.00 0.00 0.00 0.00 0.00 0.00 0.00 0.00 0.00 0.00 0.00 0.01 0.04 0.04 0.01
0.00 0.00 0.00 0.00 0.00 0.00 0.00 0.00 0.00 0.00 0.00 0.00 0.00 0.00 0.00 0.00 0.00 0.00 0.00 0.00 0.00 0.00 0.00 0.00 0.00 0.00 0.00 0.00 0.00 0.00 0.00 0.00 0.00 0.00 0.00 0.00 0.00 0.00 0.00 0.00 0.01 0.04 0.06
0.00 0.00 0.00 0.00 0.00 0.00 0.00 0.00 0.00 0.00 0.00 0.00 0.00 0.00 0.00 0.00 0.00 0.00 0.00 0.00 0.00 0.00 0.00 0.00 0.00 0.00 0.00 0.00 0.01 0.01 0.00 0.00 0.00 0.00 0.00 0.00 0.00 0.00 0.00 0.00 0.01 0.02 0.03
0.00 0.00 0.00 0.00 0.00 0.00 0.00 0.00 0.00 0.00 0.00 0.00 0.00 0.00 0.00 0.00 0.00 0.00 0.00 0.00 0.00 0.00 0.00 0.00 0.00 0.02 0.02 0.00 0.01 0.05 0.05 0.02 0.00 0.00 0.00 0.00 0.00 0.00 0.02 0.02 0.03 0.04 0.02
0.00 0.00 0.00 0.00 0.00 0.00 0.00 0.00 0.00 0.00 0.00 0.00 0.00 0.00 0.00 0.00 0.00 0.00 0.00 0.00 0.00 0.00 0.01 0.01 0.01 0.01 0.03 0.03 0.01 0.01 0.04 0.06 0.08 0.03 0.00 0.00 0.00 0.02 0.06 0.11 0.16 0.09 0.09
0.00 0.00 0.00 0.00 0.00 0.00 0.00 0.00 0.00 0.00 0.00 0.00 0.00 0.00 0.00 0.00 0.00 0.00 0.00 0.00 0.00 0.00 0.01 0.01 0.01 0.02 0.02 0.04 0.04 0.03 0.03 0.02 0.03 0.08 0.02 0.00 0.03 0.05 0.10 0.16 0.31 0.14 0.11
0.00 0.00 0.00 0.00 0.00 0.00 0.00 0.00 0.00 0.00 0.00 0.00 0.00 0.00 0.00 0.00 0.00 0.00 0.00 0.00 0.00 0.00 0.01 0.01 0.02 0.02 0.03 0.03 0.04 0.03 0.06 0.09 0.05 0.14 0.13 0.02 0.06 0.12 0.14 0.40 0.38 0.29 0.21